Info: BRI BCA BNI MANDIRI ONLINE | MOHON SELALU PERHATIKAN REKENING BANK AKTIF DI MENU DEPOSIT..APABILA REKENING BANK TIDAK TERLIHAT DI MENU DEPOSIT JANGAN MELAKUKAN TRANSFER DANA KE REKENING BANK TERSEBUT..MOHON KUNJUNGI INFO POKER88 PADA http:/pk88.info/
REGISTER JACKPOT POINT REWARD REFERRAL DEPOSIT DOWNLOAD APPS SUPPORT VIP
JACKPOT
Jackpot Winner Texas Poker
Kini Telah hadir Jackpot SUPER ROYAL FLUSH
Kini Telah hadir Jackpot 2000 (khusus table VIP keatas).

Ikutilah global jackpot yang tersedia di system kami, dengan system jackpot terbaru dan pertama di indonesia, anda dapat membeli jackpot dengan harga 100 rupiah saja dan menangkan hadiahnya hingga puluhan juta rupiah.

Jackpot bukanlah suatu keharusan untuk dibeli, namun kami memberikan suatu fitur tambahan untuk member tercinta dari poker88.asia.

Terdapat tiga pilihan harga jackpot yang bisa anda beli yaitu :100,500,1000 dan 2000(khusus table VIP Keatas) rupiah.

Hadiah dari Multi jackpot system poker88.asia

  1. full house x 10 harga jackpot yang anda beli.
      (contoH:anda membeli 1000 maka:1000 X10 = 10.000)
  2. four of kind x 250 harga jackpot yang anda beli
      (contoH:anda membeli 1000 maka:1000 X250 = 250.000)
  3. Straight flush x 1200
      (contoH:anda membeli 1000 maka:1000 X1200 = 1.200.000)
  4. Royal flush x 10000 harga jackpot yang anda beli
      (contoH:anda membeli 1000 maka:1000 X10000 = 10.000.000)
  5. SUPER ROYAL FLUSH x 30000 harga jackpot yang anda beli
      (contoH:anda membeli 1000 maka:1000 X30000 = 30.000.000)

Kondisi kartu

  1. full house adalah kondisi kartu dimana kartu anda dan kartu tengah dengan total 7 kartu bisa mendapatkan nilai 5 kartu dengan kombinasi 1 tris(three of kind) dan 1 pair, contoh 3 kartu 10 dan 2 kartu 5
  2. Four of kind adalah kondisi kartu dimana kartu anda dan kartu tengah dengan total 7 kartu bisa mendapatkan nilai 5 kartu dengan kombinasi 4 kartu yang sama jumlah dan 1 kartu apapun juga contoh anda mendapatkan 4 buah kartu angka 3 dan 1 kartu apapun.
  3. Straight flush adalah kondisi kartu dimana kartu anda dan kartu tengah dengan total 7 kartu bisa mendapatkan nilai 5 kartu dengan kombinasi seri / staright dengan kembang yang sama contoh : urutan kartu dari angka 5, 6, 7, 8 , 9 10 dengan kembang yg sama misalnya as hati
  4. Royal flush adalah kondisi kartu dimana kartu anda dan kartu tengah dengan total 7 kartu bisa mendapatkan nilai 5 kartu dengan kombinasi seri / staright dengan kembang yang sama tetapi kartu tersebut haruslah dimulai dari 10. contoh 10, Queen, Jack, King dan aces dengan kembang yang sama
  5. Super Royal flush adalah kondisi kartu dimana Kedua kartu anda digabung dengan 3 kartu pertama meja haruslah royal flush. contoh kartu anda10,Queen dan 3 kartu pertama meja adalah Jack, King dan aces dengan kembang yang sama

Demikian adalah penjelasan dari Multi Jackpot poker88.asia terima kasih dan selamat bermain salam hoki dari kami

Jackpot Winner
TOP SUPER ROYAL FLUSH
No.TanggalNamaPriceWin
127/05 02:52AS1999Super Royal flush15,000,000
227/05 01:14PMBRJPSuper Royal flush30,000,000
326/05 20:33K2DOX81FU4Super Royal flush15,000,000
426/05 20:18BAUTAY36Super Royal flush3,000,000
526/05 15:22AMATEUR911Super Royal flush3,000,000
TOP ROYAL FLUSH
No.TanggalNamaPriceWin
127/05 11:02KYUU88Royal flush10,000,000
227/05 10:37WIRAH777Royal flush1,000,000
327/05 10:16A5K1974Royal flush5,000,000
427/05 10:07TEMPE1245Royal flush1,000,000
527/05 10:02JANAH244Royal flush10,000,000
TOP STRAIGHT FLUSH
No.TanggalNamaPriceWin
127/05 11:09NAGAPUTIH8Straight Flush1,200,000
227/05 11:07INIPIDUStraight Flush1,200,000
327/05 11:06KUPRETLUStraight Flush120,000
427/05 11:03BOKSUY99Straight Flush1,200,000
527/05 11:03WADOELLStraight Flush120,000
LATEST JACKPOT
No.TanggalNamaPriceWin
127/05 11:10M1H3V0NFull House5,000
227/05 11:10ETHANSAMFour Of A Kind250,000
327/05 11:09NGEPET_09Full House1,000
427/05 11:09BODAT04Full House1,000
527/05 11:09LOIS84Full House1,000
627/05 11:09NA94XXXFull House1,000
727/05 11:09ARI70Full House5,000
827/05 11:09BK51G3NGFull House1,000
927/05 11:09D0FFANTFull House10,000
1027/05 11:09GORGOM7Full House1,000
1127/05 11:09YHOOOFull House1,000
1227/05 11:09SANDAJEPITFull House5,000
1327/05 11:09DICHELLE19Full House5,000
1427/05 11:09NADE06Full House1,000
1527/05 11:09YU8N5AU1LTFull House1,000
1627/05 11:09FELIX_WFull House1,000
1727/05 11:09NAGAPUTIH8Straight Flush1,200,000
1827/05 11:09RANDHA3Full House5,000
1927/05 11:09DOGLO123Full House1,000
2027/05 11:09AMOS93Full House10,000
2127/05 11:09BATMAN05Full House1,000
2227/05 11:09CHICKENWINNERFull House10,000
2327/05 11:09NURANI99Full House5,000
2427/05 11:09WNZ88Full House20,000
2527/05 11:09RQ33Full House1,000
2627/05 11:08MBEB272Full House5,000
2727/05 11:08AKPRA12Full House1,000
2827/05 11:08DA5BE692Full House10,000
2927/05 11:08CHATE277Full House1,000
3027/05 11:08MMT93Full House10,000
3127/05 11:08DAVID533Four Of A Kind125,000
3227/05 11:08K4NCIELFull House5,000
3327/05 11:08GO156Full House5,000
3427/05 11:08BOKSUY99Full House10,000
3527/05 11:08NAF4S99Full House1,000
3627/05 11:08NUANSAJPFull House5,000
3727/05 11:08KINKS777Full House20,000
3827/05 11:08LABEEKEHFull House10,000
3927/05 11:08RUDY333Full House10,000
4027/05 11:08PUPFull House10,000
4127/05 11:08KADAL1558Full House10,000
4227/05 11:08ETHANSAMFull House10,000
4327/05 11:08ENTOG18Full House5,000
4427/05 11:08AL_BANIFull House1,000
4527/05 11:08NURANI99Full House5,000
4627/05 11:08KIOSABAHFour Of A Kind250,000
4727/05 11:08SIRGENIUSFull House1,000
4827/05 11:08FA97DE74Full House10,000
4927/05 11:08SPWDJJJFull House1,000
5027/05 11:08ACHOK88Full House1,000
Dewa.FM